This is the latest recevied weather packets stored in our database for station/object KD8ZLZ-13. If no packets are shown the sender has not sent any weather packets the latest 10 day(s).
| Time | Temp. | Humidity | Pressure | Rain* | Wind** | Luminosity | Snow |
|---|---|---|---|---|---|---|---|
| 1778118643 | 8.89° C | 63% | 1014.2 hPa | 0 mm | - | 0 W/m² | - |
| 1778118043 | 9.44° C | 57% | 1014.2 hPa | 0 mm | - | 0 W/m² | - |
| 1778117443 | 10° C | 52% | 1013.9 hPa | 0 mm | - | 0 W/m² | - |
| 1778116843 | 10.56° C | 49% | 1013.9 hPa | 0 mm | - | 0 W/m² | - |
| 1778116243 | 10.56° C | 48% | 1013.9 hPa | 0 mm | - | 0 W/m² | - |
| 1778115643 | 10.56° C | 46% | 1013.9 hPa | 0 mm | - | 0 W/m² | - |
| 1778115043 | 11.11° C | 46% | 1013.6 hPa | 0 mm | - | 2 W/m² | - |
| 1778114443 | 11.11° C | 47% | 1013.6 hPa | 0 mm | - | 3 W/m² | - |
| 1778113843 | 11.11° C | 45% | 1013.6 hPa | 0 mm | - | 6 W/m² | - |
| 1778113243 | 11.11° C | 44% | 1013.6 hPa | 0 mm | - | 10 W/m² | - |
| 1778112643 | 11.67° C | 43% | 1013.6 hPa | 0 mm | - | 13 W/m² | - |
| 1778112043 | 11.67° C | 42% | 1013.6 hPa | 0 mm | - | 26 W/m² | - |
| 1778111443 | 11.67° C | 41% | 1013.6 hPa | 0 mm | - | 33 W/m² | - |
| 1778110843 | 11.67° C | 42% | 1013.6 hPa | 0 mm | - | 31 W/m² | - |
| 1778110243 | 11.67° C | 41% | 1013.6 hPa | 0 mm | - | 50 W/m² | - |
| 1778109643 | 12.22° C | 40% | 1013.6 hPa | 0 mm | - | 68 W/m² | - |
| 1778109043 | 12.22° C | 40% | 1013.6 hPa | 0 mm | - | 113 W/m² | - |
| 1778108443 | 12.22° C | 40% | 1013.6 hPa | 0 mm | - | 153 W/m² | - |
| 1778107843 | 12.22° C | 39% | 1013.6 hPa | 0 mm | - | 118 W/m² | - |
| 1778107243 | 12.22° C | 39% | 1013.6 hPa | 0 mm | - | 94 W/m² | - |
| 1778106643 | 12.22° C | 40% | 1013.6 hPa | 0 mm | - | 132 W/m² | - |
| 1778106043 | 12.22° C | 39% | 1013.6 hPa | 0 mm | - | 149 W/m² | - |
| 1778105443 | 12.78° C | 38% | 1013.6 hPa | 0 mm | - | 193 W/m² | - |
| 1778104843 | 12.78° C | 39% | 1013.6 hPa | 0 mm | - | 188 W/m² | - |
| 1778104243 | 12.78° C | 38% | 1013.2 hPa | 0 mm | - | 214 W/m² | - |
* Rain latest hour (hover to see other rain measurements)
** Current wind speed in m/s (hover to see current wind gust speed)